• In Germany
  • List of Countries
  • For 7 days
  • Water Temperature
  • Satellite Maps
  • Weather Map
  • Weather Widgets
  • user-avatar
    Login

    Hourly Weather Bogota

    Today, 20 August, Sunday

    Time Temperature Precipitation Wind Pressure Humidity
    00:00 +11°C° 0.1 mm 1 mps 549 mmHg 87%
    01:00 +11°C° 0.1 mm 1 mps 549 mmHg 87%
    02:00 +9°C° 0.1 mm 0 mps 548 mmHg 86%
    03:00 +9°C° 0.1 mm 0 mps 548 mmHg 85%
    04:00 +9°C° 0.1 mm 0 mps 548 mmHg 85%
    05:00 +10°C° 0 mm 1 mps 549 mmHg 82%
    06:00 +11°C° 0 mm 1 mps 549 mmHg 80%
    07:00 +11°C° 0 mm 1 mps 550 mmHg 78%
    08:00 +13°C° 0 mm 1 mps 551 mmHg 72%
    09:00 +15°C° 0 mm 2 mps 551 mmHg 66%
    10:00 +16°C° 0 mm 2 mps 552 mmHg 60%
    11:00 +17°C° 0.1 mm 2 mps 552 mmHg 58%
    12:00 +17°C° 0.1 mm 3 mps 552 mmHg 57%
    13:00 +18°C° 0.1 mm 3 mps 552 mmHg 55%
    14:00 +18°C° 0.3 mm 3 mps 551 mmHg 57%
    15:00 +17°C° 0.3 mm 2 mps 551 mmHg 58%
    16:00 +17°C° 0.3 mm 2 mps 550 mmHg 59%
    17:00 +15°C° 0.2 mm 2 mps 550 mmHg 66%
    18:00 +13°C° 0.2 mm 2 mps 549 mmHg 74%
    19:00 +11°C° 0.2 mm 1 mps 549 mmHg 81%
    20:00 +11°C° 0.1 mm 1 mps 549 mmHg 80%
    21:00 +11°C° 0.1 mm 1 mps 549 mmHg 80%
    22:00 +10°C° 0.1 mm 1 mps 550 mmHg 80%
    23:00 +10°C° 0 mm 1 mps 549 mmHg 79%

    Tomorrow, 21 August, Monday

    Time Temperature Precipitation Wind Pressure Humidity
    00:00 +10°C° 0 mm 1 mps 549 mmHg 79%
    01:00 +9°C° 0 mm 1 mps 549 mmHg 79%
    02:00 +9°C° 0 mm 1 mps 549 mmHg 78%
    03:00 +9°C° 0 mm 1 mps 549 mmHg 76%
    04:00 +9°C° 0 mm 1 mps 549 mmHg 75%
    05:00 +10°C° 0 mm 1 mps 549 mmHg 74%
    06:00 +10°C° 0 mm 1 mps 550 mmHg 73%
    07:00 +11°C° 0 mm 1 mps 550 mmHg 71%
    08:00 +12°C° 0 mm 1 mps 551 mmHg 67%
    09:00 +14°C° 0 mm 2 mps 552 mmHg 63%
    10:00 +15°C° 0 mm 2 mps 553 mmHg 59%
    11:00 +16°C° 0.1 mm 2 mps 553 mmHg 57%
    12:00 +17°C° 0.1 mm 3 mps 553 mmHg 54%
    13:00 +17°C° 0.1 mm 3 mps 552 mmHg 52%
    14:00 +17°C° 0.2 mm 3 mps 552 mmHg 55%
    15:00 +16°C° 0.2 mm 3 mps 551 mmHg 58%
    16:00 +16°C° 0.2 mm 2 mps 551 mmHg 61%
    17:00 +14°C° 0.2 mm 2 mps 550 mmHg 67%
    18:00 +13°C° 0.2 mm 1 mps 550 mmHg 73%
    19:00 +11°C° 0.2 mm 1 mps 550 mmHg 79%
    20:00 +11°C° 0.1 mm 1 mps 550 mmHg 80%
    21:00 +11°C° 0.1 mm 1 mps 551 mmHg 81%
    22:00 +10°C° 0.1 mm 1 mps 551 mmHg 82%
    23:00 +10°C° 0 mm 1 mps 550 mmHg 82%

    Day after tomorrow, 22 August, Tuesday

    Time Temperature Precipitation Wind Pressure Humidity
    00:00 +9°C° 0 mm 1 mps 550 mmHg 82%
    01:00 +9°C° 0 mm 1 mps 549 mmHg 82%
    02:00 +9°C° 0 mm 1 mps 549 mmHg 81%
    03:00 +8°C° 0 mm 1 mps 549 mmHg 80%
    04:00 +8°C° 0 mm 1 mps 548 mmHg 79%
    05:00 +9°C° 0 mm 1 mps 549 mmHg 75%
    06:00 +9°C° 0 mm 1 mps 550 mmHg 72%
    07:00 +10°C° 0 mm 1 mps 550 mmHg 69%
    08:00 +12°C° 0 mm 2 mps 552 mmHg 61%
    09:00 +14°C° 0 mm 2 mps 553 mmHg 53%
    10:00 +17°C° 0 mm 3 mps 554 mmHg 46%
    11:00 +17°C° 0 mm 3 mps 554 mmHg 44%
    12:00 +18°C° 0 mm 3 mps 553 mmHg 43%
    13:00 +19°C° 0 mm 3 mps 553 mmHg 42%
    14:00 +18°C° 0 mm 3 mps 552 mmHg 43%
    15:00 +18°C° 0 mm 3 mps 551 mmHg 45%
    16:00 +18°C° 0 mm 2 mps 551 mmHg 47%
    17:00 +15°C° 0 mm 2 mps 550 mmHg 56%
    18:00 +13°C° 0 mm 2 mps 549 mmHg 64%
    19:00 +11°C° 0 mm 1 mps 549 mmHg 73%
    20:00 +11°C° 0 mm 1 mps 549 mmHg 73%
    21:00 +10°C° 0 mm 1 mps 549 mmHg 74%
    22:00 +10°C° 0 mm 1 mps 550 mmHg 74%
    23:00 +10°C° 0 mm 1 mps 550 mmHg 73%

    23 August, Wednesday

    Time Temperature Precipitation Wind Pressure Humidity
    00:00 +10°C° 0 mm 1 mps 549 mmHg 72%
    01:00 +10°C° 0 mm 1 mps 549 mmHg 71%
    02:00 +10°C° 0 mm 1 mps 549 mmHg 71%
    03:00 +9°C° 0 mm 1 mps 548 mmHg 70%
    04:00 +9°C° 0 mm 1 mps 548 mmHg 70%
    05:00 +10°C° 0 mm 1 mps 549 mmHg 69%
    06:00 +10°C° 0 mm 1 mps 549 mmHg 68%
    07:00 +11°C° 0 mm 1 mps 550 mmHg 67%
    08:00 +13°C° 0 mm 1 mps 551 mmHg 60%
    09:00 +15°C° 0 mm 2 mps 552 mmHg 53%
    10:00 +17°C° 0 mm 2 mps 553 mmHg 46%
    11:00 +18°C° 0 mm 2 mps 553 mmHg 46%
    12:00 +18°C° 0 mm 2 mps 552 mmHg 45%
    13:00 +18°C° 0 mm 2 mps 552 mmHg 45%
    14:00 +18°C° 0 mm 2 mps 551 mmHg 47%
    15:00 +17°C° 0 mm 2 mps 550 mmHg 50%
    16:00 +17°C° 0 mm 2 mps 549 mmHg 52%
    17:00 +15°C° 0.2 mm 2 mps 549 mmHg 61%
    18:00 +13°C° 0.2 mm 2 mps 548 mmHg 69%
    19:00 +11°C° 0.2 mm 1 mps 548 mmHg 78%
    20:00 +11°C° 0.2 mm 1 mps 548 mmHg 78%
    21:00 +10°C° 0.2 mm 1 mps 548 mmHg 79%
    22:00 +10°C° 0.2 mm 1 mps 549 mmHg 79%
    23:00 +9°C° 0 mm 1 mps 548 mmHg 79%

    24 August, Thursday

    Time Temperature Precipitation Wind Pressure Humidity
    00:00 +9°C° 0 mm 1 mps 548 mmHg 78%
    01:00 +9°C° 0 mm 1 mps 548 mmHg 77%
    02:00 +9°C° 0 mm 1 mps 547 mmHg 76%
    03:00 +9°C° 0 mm 1 mps 547 mmHg 75%
    04:00 +9°C° 0 mm 1 mps 547 mmHg 74%
    05:00 +9°C° 0 mm 1 mps 548 mmHg 73%
    06:00 +10°C° 0 mm 1 mps 549 mmHg 71%
    07:00 +11°C° 0 mm 1 mps 549 mmHg 70%
    08:00 +12°C° 0 mm 1 mps 550 mmHg 65%
    09:00 +14°C° 0 mm 2 mps 551 mmHg 61%
    10:00 +15°C° 0 mm 2 mps 552 mmHg 56%
    11:00 +16°C° 0.1 mm 2 mps 552 mmHg 56%
    12:00 +16°C° 0.1 mm 2 mps 551 mmHg 56%
    13:00 +16°C° 0.1 mm 2 mps 551 mmHg 56%
    14:00 +16°C° 0.2 mm 2 mps 550 mmHg 59%
    15:00 +15°C° 0.2 mm 2 mps 550 mmHg 62%
    16:00 +15°C° 0.2 mm 1 mps 549 mmHg 65%
    17:00 +14°C° 0.4 mm 1 mps 549 mmHg 71%
    18:00 +12°C° 0.4 mm 1 mps 549 mmHg 77%
    19:00 +11°C° 0.4 mm 1 mps 549 mmHg 83%
    20:00 +11°C° 0.3 mm 1 mps 549 mmHg 83%
    21:00 +11°C° 0.3 mm 1 mps 549 mmHg 83%
    22:00 +10°C° 0.3 mm 1 mps 549 mmHg 83%
    23:00 +10°C° 0.1 mm 1 mps 549 mmHg 82%

    25 August, Friday

    Time Temperature Precipitation Wind Pressure Humidity
    00:00 +10°C° 0.1 mm 1 mps 549 mmHg 82%
    01:00 +10°C° 0.1 mm 1 mps 548 mmHg 81%
    02:00 +9°C° 0.1 mm 1 mps 548 mmHg 81%
    03:00 +9°C° 0.1 mm 1 mps 548 mmHg 81%
    04:00 +9°C° 0.1 mm 1 mps 548 mmHg 81%
    05:00 +10°C° 0 mm 1 mps 549 mmHg 79%
    06:00 +10°C° 0 mm 1 mps 549 mmHg 78%
    07:00 +11°C° 0 mm 1 mps 550 mmHg 77%
    08:00 +12°C° 0 mm 1 mps 551 mmHg 71%
    09:00 +14°C° 0 mm 1 mps 552 mmHg 65%
    10:00 +15°C° 0 mm 2 mps 553 mmHg 60%
    11:00 +16°C° 0.1 mm 2 mps 552 mmHg 58%
    12:00 +16°C° 0.1 mm 2 mps 552 mmHg 57%
    13:00 +17°C° 0.1 mm 2 mps 552 mmHg 56%
    14:00 +16°C° 0.1 mm 2 mps 551 mmHg 57%
    15:00 +16°C° 0.1 mm 2 mps 551 mmHg 59%
    16:00 +16°C° 0.1 mm 2 mps 550 mmHg 61%
    17:00 +14°C° 0.2 mm 2 mps 550 mmHg 69%
    18:00 +12°C° 0.2 mm 1 mps 549 mmHg 76%
    19:00 +11°C° 0.2 mm 1 mps 549 mmHg 84%
    20:00 +11°C° 0.4 mm 1 mps 549 mmHg 84%
    21:00 +11°C° 0.4 mm 1 mps 550 mmHg 84%
    22:00 +11°C° 0.4 mm 1 mps 550 mmHg 84%
    23:00 +10°C° 0.6 mm 1 mps 550 mmHg 84%
    Show more